When you browse on this site, cookies collect data to enhance your experience and personalize the content and advertising you see.
Visit our Privacy Policy to learn more. By continuing to use the site, you agree to this use of cookies and data.
  • In Czech Republic
  • List of Countries
  • For 7 days
  • Water Temperature
  • Satellite Maps
  • Weather Map
  • Weather Widgets
  • user-avatar
    Login

    Hourly Weather Mamou

    Today, 21 July, Sunday

    Time Temperature Precipitation Wind Pressure Humidity
    00:00 +26°C° 0 mm 1 mps 735 mmHg 85%
    01:00 +26°C° 0 mm 1 mps 735 mmHg 85%
    02:00 +25°C° 0.1 mm 1 mps 735 mmHg 86%
    03:00 +25°C° 0.1 mm 1 mps 734 mmHg 87%
    04:00 +25°C° 0.1 mm 1 mps 734 mmHg 87%
    05:00 +25°C° 0 mm 1 mps 734 mmHg 87%
    06:00 +25°C° 0 mm 1 mps 734 mmHg 86%
    07:00 +26°C° 0 mm 1 mps 735 mmHg 85%
    08:00 +26°C° 0 mm 2 mps 735 mmHg 82%
    09:00 +27°C° 0 mm 2 mps 735 mmHg 79%
    10:00 +28°C° 0 mm 2 mps 735 mmHg 76%
    11:00 +29°C° 0 mm 2 mps 735 mmHg 72%
    12:00 +30°C° 0 mm 2 mps 735 mmHg 68%
    13:00 +31°C° 0 mm 2 mps 734 mmHg 64%
    14:00 +31°C° 0.7 mm 2 mps 733 mmHg 67%
    15:00 +30°C° 0.7 mm 2 mps 732 mmHg 69%
    16:00 +30°C° 0.7 mm 2 mps 732 mmHg 72%
    17:00 +29°C° 1 mm 1 mps 732 mmHg 76%
    18:00 +28°C° 1 mm 1 mps 733 mmHg 80%
    19:00 +25°C° 1 mm 0 mps 733 mmHg 84%
    20:00 +27°C° 0.2 mm 1 mps 733 mmHg 84%
    21:00 +26°C° 0.2 mm 1 mps 734 mmHg 85%
    22:00 +26°C° 0.2 mm 1 mps 734 mmHg 85%
    23:00 +26°C° 0.1 mm 1 mps 734 mmHg 85%

    Tomorrow, 22 July, Monday

    Time Temperature Precipitation Wind Pressure Humidity
    00:00 +25°C° 0.1 mm 1 mps 734 mmHg 86%
    01:00 +25°C° 0.1 mm 1 mps 734 mmHg 86%
    02:00 +23°C° 0.1 mm 0 mps 733 mmHg 86%
    03:00 +23°C° 0.1 mm 0 mps 733 mmHg 86%
    04:00 +22°C° 0.1 mm 0 mps 733 mmHg 86%
    05:00 +23°C° 0 mm 0 mps 733 mmHg 85%
    06:00 +23°C° 0 mm 0 mps 733 mmHg 84%
    07:00 +25°C° 0 mm 1 mps 734 mmHg 84%
    08:00 +27°C° 0.1 mm 1 mps 734 mmHg 79%
    09:00 +28°C° 0.1 mm 2 mps 734 mmHg 75%
    10:00 +29°C° 0.1 mm 3 mps 735 mmHg 71%
    11:00 +30°C° 0.8 mm 3 mps 734 mmHg 70%
    12:00 +30°C° 0.8 mm 3 mps 734 mmHg 69%
    13:00 +31°C° 0.8 mm 3 mps 734 mmHg 68%
    14:00 +30°C° 2.4 mm 4 mps 733 mmHg 70%
    15:00 +30°C° 2.4 mm 4 mps 732 mmHg 72%
    16:00 +30°C° 2.4 mm 4 mps 732 mmHg 74%
    17:00 +29°C° 0.5 mm 3 mps 732 mmHg 77%
    18:00 +28°C° 0.5 mm 3 mps 733 mmHg 80%
    19:00 +27°C° 0.5 mm 2 mps 733 mmHg 82%
    20:00 +26°C° 0 mm 2 mps 733 mmHg 84%
    21:00 +26°C° 0 mm 2 mps 734 mmHg 87%
    22:00 +25°C° 0 mm 2 mps 734 mmHg 89%
    23:00 +25°C° 0 mm 2 mps 734 mmHg 90%

    Day after tomorrow, 23 July, Tuesday

    Time Temperature Precipitation Wind Pressure Humidity
    00:00 +25°C° 0 mm 2 mps 734 mmHg 91%
    01:00 +25°C° 0 mm 2 mps 734 mmHg 92%
    02:00 +25°C° 0 mm 2 mps 734 mmHg 92%
    03:00 +25°C° 0 mm 2 mps 734 mmHg 91%
    04:00 +25°C° 0 mm 2 mps 733 mmHg 91%
    05:00 +25°C° 0 mm 2 mps 734 mmHg 90%
    06:00 +25°C° 0 mm 2 mps 734 mmHg 90%
    07:00 +25°C° 0 mm 3 mps 734 mmHg 90%
    08:00 +26°C° 0 mm 3 mps 735 mmHg 86%
    09:00 +26°C° 0 mm 3 mps 735 mmHg 82%
    10:00 +27°C° 0 mm 3 mps 736 mmHg 78%
    11:00 +28°C° 0 mm 3 mps 736 mmHg 75%
    12:00 +28°C° 0 mm 3 mps 735 mmHg 73%
    13:00 +29°C° 0 mm 2 mps 735 mmHg 71%
    14:00 +29°C° 0 mm 2 mps 734 mmHg 69%
    15:00 +30°C° 0 mm 2 mps 733 mmHg 67%
    16:00 +31°C° 0 mm 1 mps 733 mmHg 65%
    17:00 +30°C° 0 mm 1 mps 733 mmHg 68%
    18:00 +29°C° 0 mm 1 mps 733 mmHg 72%
    19:00 +28°C° 0 mm 1 mps 733 mmHg 75%
    20:00 +28°C° 0 mm 1 mps 733 mmHg 77%
    21:00 +28°C° 0 mm 1 mps 734 mmHg 79%
    22:00 +27°C° 0 mm 1 mps 734 mmHg 81%
    23:00 +27°C° 0 mm 1 mps 734 mmHg 83%

    24 July, Wednesday

    Time Temperature Precipitation Wind Pressure Humidity
    00:00 +26°C° 0 mm 1 mps 734 mmHg 85%
    01:00 +26°C° 0 mm 1 mps 734 mmHg 87%
    02:00 +26°C° 0 mm 1 mps 734 mmHg 87%
    03:00 +26°C° 0 mm 1 mps 733 mmHg 88%
    04:00 +25°C° 0 mm 2 mps 733 mmHg 88%
    05:00 +25°C° 0.1 mm 2 mps 734 mmHg 89%
    06:00 +25°C° 0.1 mm 2 mps 734 mmHg 90%
    07:00 +25°C° 0.1 mm 2 mps 735 mmHg 91%
    08:00 +26°C° 0 mm 2 mps 735 mmHg 87%
    09:00 +27°C° 0 mm 2 mps 735 mmHg 83%
    10:00 +28°C° 0 mm 2 mps 736 mmHg 79%
    11:00 +29°C° 0.1 mm 2 mps 735 mmHg 75%
    12:00 +30°C° 0.1 mm 3 mps 735 mmHg 71%
    13:00 +31°C° 0.1 mm 3 mps 734 mmHg 67%
    14:00 +31°C° 0.1 mm 3 mps 733 mmHg 66%
    15:00 +31°C° 0.1 mm 3 mps 733 mmHg 65%
    16:00 +31°C° 0.1 mm 3 mps 732 mmHg 64%
    17:00 +30°C° 1 mm 2 mps 732 mmHg 69%
    18:00 +29°C° 1 mm 2 mps 732 mmHg 74%
    19:00 +28°C° 1 mm 1 mps 732 mmHg 79%
    20:00 +28°C° 0.7 mm 1 mps 733 mmHg 81%
    21:00 +27°C° 0.7 mm 1 mps 733 mmHg 84%
    22:00 +27°C° 0.7 mm 1 mps 734 mmHg 86%
    23:00 +26°C° 0.4 mm 1 mps 734 mmHg 88%

    25 July, Thursday

    Time Temperature Precipitation Wind Pressure Humidity
    00:00 +26°C° 0.4 mm 1 mps 733 mmHg 90%
    01:00 +26°C° 0.4 mm 1 mps 733 mmHg 91%
    02:00 +26°C° 0 mm 1 mps 733 mmHg 92%
    03:00 +26°C° 0 mm 1 mps 733 mmHg 93%
    04:00 +25°C° 0 mm 1 mps 733 mmHg 94%
    05:00 +25°C° 0.1 mm 1 mps 733 mmHg 94%
    06:00 +25°C° 0.1 mm 1 mps 733 mmHg 94%
    07:00 +25°C° 0.1 mm 1 mps 734 mmHg 94%
    08:00 +26°C° 0.3 mm 2 mps 734 mmHg 92%
    09:00 +26°C° 0.3 mm 2 mps 734 mmHg 89%
    10:00 +27°C° 0.3 mm 2 mps 735 mmHg 87%
    11:00 +27°C° 0.1 mm 2 mps 734 mmHg 84%
    12:00 +28°C° 0.1 mm 2 mps 734 mmHg 81%
    13:00 +29°C° 0.1 mm 2 mps 733 mmHg 78%
    14:00 +29°C° 0 mm 2 mps 733 mmHg 75%
    15:00 +30°C° 0 mm 2 mps 732 mmHg 71%
    16:00 +31°C° 0 mm 2 mps 732 mmHg 68%
    17:00 +30°C° 0.5 mm 1 mps 732 mmHg 73%
    18:00 +29°C° 0.5 mm 1 mps 732 mmHg 77%
    19:00 +28°C° 0.5 mm 1 mps 732 mmHg 82%
    20:00 +27°C° 0 mm 1 mps 732 mmHg 83%
    21:00 +27°C° 0 mm 1 mps 733 mmHg 84%
    22:00 +27°C° 0 mm 1 mps 733 mmHg 84%
    23:00 +26°C° 0 mm 1 mps 733 mmHg 86%

    26 July, Friday

    Time Temperature Precipitation Wind Pressure Humidity
    00:00 +26°C° 0 mm 1 mps 733 mmHg 88%
    01:00 +26°C° 0 mm 1 mps 733 mmHg 89%
    02:00 +26°C° 0 mm 1 mps 733 mmHg 90%
    03:00 +25°C° 0 mm 1 mps 733 mmHg 90%
    04:00 +25°C° 0 mm 1 mps 733 mmHg 91%
    05:00 +25°C° 0 mm 1 mps 733 mmHg 91%
    06:00 +26°C° 0 mm 1 mps 734 mmHg 91%
    07:00 +26°C° 0 mm 2 mps 734 mmHg 91%
    08:00 +27°C° 0 mm 2 mps 734 mmHg 86%
    09:00 +28°C° 0 mm 3 mps 734 mmHg 82%
    10:00 +29°C° 0 mm 3 mps 734 mmHg 77%
    11:00 +30°C° 0 mm 4 mps 734 mmHg 72%
    12:00 +32°C° 0 mm 4 mps 733 mmHg 67%
    13:00 +33°C° 0 mm 4 mps 733 mmHg 62%
    14:00 +33°C° 0 mm 4 mps 733 mmHg 62%
    15:00 +34°C° 0 mm 4 mps 732 mmHg 61%
    16:00 +34°C° 0 mm 3 mps 732 mmHg 61%
    17:00 +31°C° 0 mm 3 mps 732 mmHg 66%
    18:00 +30°C° 0 mm 2 mps 732 mmHg 71%
    19:00 +29°C° 0 mm 2 mps 732 mmHg 76%
    20:00 +28°C° 0.6 mm 2 mps 733 mmHg 79%
    21:00 +28°C° 0.6 mm 2 mps 733 mmHg 83%
    22:00 +27°C° 0.6 mm 2 mps 733 mmHg 86%
    23:00 +27°C° 0.1 mm 2 mps 733 mmHg 87%
    Show more